Location: De Greiden
(52.9496°N, 5.9137°E)
Time: 01:19:12
(UTC+00:00)

IRS-1C Rocket - Pass Details

Date: 24 January 2021
Orbit: 801 x 805 km, 99.0° (Epoch: 26 February)

Event Time Altitude Azimuth Distance (km) Brightness Sun altitude
Rises 17:46:22 0° 162° (SSE) 3,301 7.2 -14.8°
Reaches altitude 10° 17:48:41 10° 163° (SSE) 2,374 6.5 -15.1°
Maximum altitude 17:53:57 87° 254° (WSW) 810 4.1 -15.9°
Drops below altitude 10° 17:59:15 10° 343° (NNW) 2,391 6.6 -16.7°
Sets 18:01:36 0° 344° (NNW) 3,326 7.4 -17.0°
